Location: Unspecified
(40.9447°N, 78.9903°W)
Time: 13:39:45
(UTC-04:00)

Cosmos 1674 - Pass Details

Date: 30 July 2021
Orbit: 491 x 516 km, 82.5° (Epoch: 23 September)

Event Time Altitude Azimuth Distance (km) Brightness Sun altitude
Rises 04:47:22 0° 337° (NNW) 2,645 6.5 -14.0°
Reaches altitude 10° 04:49:50 10° 322° (NW) 1,751 5.4 -13.6°
Maximum altitude 04:52:50 22° 271° (W) 1,167 4.0 -13.2°
Enters shadow 04:53:44 20° 250° (WSW) 1,229 4.0 -13.1°
